Location: Risskov
(56.1972°N, 10.2480°E)
Time: 12:16:25
(UTC+00:00)

Thor Agena Rocket - Pass Details

Date: 05 July 2020
Orbit: 759 x 808 km, 99.0° (Epoch: 07 August)

Event Time Altitude Azimuth Distance (km) Brightness Sun altitude
Rises 22:20:48 0° 17° (NNE) 3,281 7.9 -10.0°
Reaches altitude 10° 22:23:09 10° 19° (NNE) 2,341 7.0 -10.1°
Maximum altitude 22:28:19 80° 106° (ESE) 790 3.5 -10.3°
Enters shadow 22:33:17 11° 194° (SSW) 2,258 5.4 -10.4°
